Date String (YYYY-MM-DD hh:mm:ss) UTC,Instrument flags,Ambient pressure (hPa),Sample flow (lpm),Bypass flow (lpm),Sample temperature (°C),Ambient temperature (°C),ASC tube jacket temperature (°C),LED temperature (°C),Box temperature (°C),Sample RH (%),Span deviation,Mass concentration (μg/m³),Mass concentration (μg/m³),Mass concentration (μg/m³)
DateTimeUTC,F1_M11,P_M11,Q1_M11,Q2_M11,T1_M11,T2_M11,T3_M11,T4_M11,T5_M11,U1_M11,ZSPAN_M11,X2_M11,X0_M11,X1_M11
2023-01-05 13:00:00,,0825.9,5.00,0.00,22.3,20.7,00.0,31.2,24.0,07.4,0000.0,0004.30,0008.41,0004.15
2023-01-05 13:01:00,,0826.0,5.01,0.00,22.3,20.7,00.0,31.2,24.0,07.4,0000.0,0004.28,0007.80,0004.14
2023-01-05 13:02:00,,0825.9,5.00,0.00,22.3,20.7,00.0,31.2,24.0,07.4,0000.0,0004.30,0007.50,0004.16
2023-01-05 13:03:00,,0825.8,5.01,0.00,22.3,21.2,00.0,31.2,24.1,07.5,0000.0,0004.33,0007.31,0004.17
2023-01-05 13:04:00,,0825.9,4.99,0.00,22.4,22.2,00.0,31.1,24.3,07.5,0000.0,0004.38,0007.40,0004.21
2023-01-05 13:05:00,,0825.8,5.01,0.00,22.5,23.0,00.0,31.1,24.5,07.4,0000.0,0004.41,0007.42,0004.24
2023-01-05 13:06:00,,0825.8,4.99,0.00,22.6,22.8,00.0,31.2,24.6,07.4,0000.0,0004.41,0007.43,0004.24
2023-01-05 13:07:00,,0826.0,4.99,0.00,22.6,22.4,00.0,31.3,24.5,07.3,0000.0,0004.43,0007.47,0004.24
2023-01-05 13:08:00,,0826.0,5.01,0.00,22.6,22.0,00.0,31.3,24.4,07.3,0000.0,0004.44,0007.49,0004.25
2023-01-05 13:09:00,,0825.8,5.00,0.00,22.6,21.7,00.0,31.3,24.3,07.4,0000.0,0004.44,0007.43,0004.25
2023-01-05 13:10:00,,0825.9,5.00,0.00,22.6,21.5,00.0,31.3,24.2,07.3,0000.0,0004.45,0007.03,0004.25
2023-01-05 13:11:00,,0826.0,5.01,0.00,22.5,21.4,00.0,31.3,24.2,07.3,0000.0,0004.44,0006.88,0004.24
2023-01-05 13:12:00,,0826.0,5.01,0.00,22.5,21.2,00.0,31.3,24.2,07.4,0000.0,0004.43,0006.87,0004.23
2023-01-05 13:13:00,,0825.9,5.00,0.00,22.5,21.1,00.0,31.3,24.1,07.4,0000.0,0004.42,0006.85,0004.22
2023-01-05 13:14:00,,0825.9,5.01,0.00,22.5,21.0,00.0,31.3,24.1,07.4,0000.0,0004.40,0006.70,0004.21
2023-01-05 13:15:00,,0825.8,4.99,0.00,22.4,21.0,00.0,31.3,24.1,07.4,0000.0,0004.35,0006.55,0004.18
2023-01-05 13:16:00,,0825.9,5.00,0.00,22.4,20.9,00.0,31.3,24.1,07.4,0000.0,0004.31,0006.45,0004.14
2023-01-05 13:17:00,,0826.0,5.00,0.00,22.4,20.9,00.0,31.3,24.1,07.4,0000.0,0004.31,0006.52,0004.12
2023-01-05 13:18:00,,0826.0,5.00,0.00,22.4,20.9,00.0,31.3,24.0,07.4,0000.0,0004.33,0006.62,0004.12
2023-01-05 13:19:00,,0826.0,5.01,0.00,22.4,21.9,00.0,31.2,24.3,07.4,0000.0,0004.33,0006.63,0004.12
2023-01-05 13:20:00,,0826.1,5.00,0.00,22.6,22.7,00.0,31.2,24.5,07.3,0000.0,0004.33,0006.65,0004.12
2023-01-05 13:21:00,,0826.2,5.00,0.00,22.7,23.1,00.0,31.3,24.7,07.3,0000.0,0004.33,0006.56,0004.13
2023-01-05 13:22:00,,0826.2,4.99,0.00,22.7,22.6,00.0,31.3,24.6,07.3,0000.0,0004.33,0006.61,0004.13
2023-01-05 13:23:00,,0826.2,5.01,0.00,22.7,22.1,00.0,31.3,24.5,07.3,0000.0,0004.39,0006.87,0004.15
2023-01-05 13:24:00,,0826.2,5.01,0.00,22.6,21.7,00.0,31.4,24.4,07.3,0000.0,0004.40,0006.96,0004.15
2023-01-05 13:25:00,,0826.1,5.00,0.00,22.6,21.4,00.0,31.4,24.3,07.3,0000.0,0004.41,0006.98,0004.14
2023-01-05 13:26:00,,0826.0,5.00,0.00,22.6,21.2,00.0,31.4,24.2,07.3,0000.0,0004.40,0007.03,0004.14
2023-01-05 13:27:00,,0826.1,5.00,0.00,22.5,21.0,00.0,31.4,24.1,07.4,0000.0,0004.41,0007.20,0004.14
2023-01-05 13:28:00,,0826.0,5.00,0.00,22.5,20.9,00.0,31.3,24.1,07.4,0000.0,0004.40,0007.13,0004.15
2023-01-05 13:29:00,,0826.1,5.00,0.00,22.4,20.7,00.0,31.3,24.0,07.4,0000.0,0004.38,0006.97,0004.16
2023-01-05 13:30:00,,0826.1,5.00,0.00,22.4,20.6,00.0,31.3,23.9,07.5,0000.0,0004.41,0007.05,0004.17
2023-01-05 13:31:00,,0826.0,5.00,0.00,22.3,20.6,00.0,31.3,23.9,07.5,0000.0,0004.41,0007.05,0004.17
2023-01-05 13:32:00,,0826.1,5.02,0.00,22.3,21.2,00.0,31.2,24.0,07.5,0000.0,0004.38,0007.01,0004.15
2023-01-05 13:33:00,,0826.0,5.00,0.00,22.4,22.2,00.0,31.2,24.3,07.5,0000.0,0004.36,0007.09,0004.14
2023-01-05 13:34:00,,0826.1,5.00,0.00,22.6,22.9,00.0,31.2,24.5,07.3,0000.0,0004.30,0006.84,0004.10
2023-01-05 13:35:00,,0826.2,4.99,0.00,22.6,22.6,00.0,31.3,24.5,07.4,0000.0,0004.27,0006.79,0004.08
2023-01-05 13:36:00,,0826.2,5.00,0.00,22.6,22.1,00.0,31.3,24.4,07.4,0000.0,0004.27,0007.03,0004.08
2023-01-05 13:37:00,,0826.2,5.00,0.00,22.6,21.7,00.0,31.3,24.2,07.3,0000.0,0004.25,0007.58,0004.06
2023-01-05 13:38:00,,0826.2,5.00,0.00,22.5,21.3,00.0,31.3,24.2,07.3,0000.0,0004.23,0007.68,0004.03
2023-01-05 13:39:00,,0826.1,5.00,0.00,22.5,21.1,00.0,31.3,24.1,07.3,0000.0,0004.20,0007.73,0004.00
2023-01-05 13:40:00,,0826.1,5.00,0.00,22.4,21.0,00.0,31.3,24.1,07.3,0000.0,0004.17,0007.72,0003.96
2023-01-05 13:41:00,,0826.1,5.00,0.00,22.4,20.9,00.0,31.3,24.1,07.3,0000.0,0004.10,0007.66,0003.91
2023-01-05 13:42:00,,0826.1,4.99,0.00,22.4,20.8,00.0,31.3,24.0,07.3,0000.0,0004.05,0007.58,0003.86
2023-01-05 13:43:00,,0826.0,5.01,0.00,22.3,20.7,00.0,31.3,24.0,07.3,0000.0,0004.03,0007.59,0003.83
2023-01-05 13:44:00,,0826.0,5.00,0.00,22.3,20.6,00.0,31.2,24.0,07.3,0000.0,0003.99,0007.46,0003.79
2023-01-05 13:45:00,,0826.0,5.02,0.00,22.3,21.0,00.0,31.2,24.0,07.3,0000.0,0003.98,0007.44,0003.78
2023-01-05 13:46:00,,0826.1,4.99,0.00,22.4,22.0,00.0,31.2,24.3,07.3,0000.0,0003.94,0007.39,0003.75
2023-01-05 13:47:00,,0826.2,5.01,0.00,22.5,22.9,00.0,31.2,24.5,07.2,0000.0,0003.87,0006.98,0003.69
2023-01-05 13:48:00,,0826.2,5.00,0.00,22.6,23.0,00.0,31.3,24.6,07.2,0000.0,0003.82,0006.18,0003.66
2023-01-05 13:49:00,,0826.2,4.99,0.00,22.6,22.5,00.0,31.3,24.5,07.2,0000.0,0003.80,0005.82,0003.64
2023-01-05 13:50:00,,0826.3,5.00,0.00,22.6,22.1,00.0,31.3,24.4,07.2,0000.0,0003.80,0005.73,0003.64
2023-01-05 13:51:00,,0826.3,5.00,0.00,22.6,21.5,00.0,31.3,24.3,07.4,0000.0,0003.84,0005.82,0003.67
2023-01-05 13:52:00,,0826.2,5.00,0.00,22.5,21.0,00.0,31.3,24.1,07.5,0000.0,0004.01,0006.24,0003.84
2023-01-05 13:53:00,,0826.2,5.02,0.00,22.4,20.8,00.0,31.3,24.0,07.5,0000.0,0004.15,0006.62,0003.98
2023-01-05 13:54:00,,0826.1,5.00,0.00,22.4,20.7,00.0,31.3,24.0,07.4,0000.0,0004.19,0006.67,0004.02
2023-01-05 13:55:00,,0826.2,4.99,0.00,22.4,20.7,00.0,31.3,24.0,07.4,0000.0,0004.21,0006.66,0004.05
2023-01-05 13:56:00,,0826.2,4.99,0.00,22.4,20.7,00.0,31.3,24.0,07.4,0000.0,0004.24,0006.73,0004.07
2023-01-05 13:57:00,,0826.2,5.01,0.00,22.3,20.6,00.0,31.3,24.0,07.4,0000.0,0004.27,0006.72,0004.11
2023-01-05 13:58:00,,0826.2,5.00,0.00,22.3,20.6,00.0,31.2,24.0,07.4,0000.0,0004.32,0006.77,0004.15
2023-01-05 13:59:00,,0826.2,5.00,0.00,22.3,20.6,00.0,31.2,24.0,07.4,0000.0,0004.38,0006.89,0004.19
